Wind_Speed
9 9 7 8 6 5 5 4 4 3 3 4 2 10 11 10 8 10 6 7 2 3 2 6 5 8 3 2 2 1 2 6 9 8 8 4 3 5 5 4 2 2 5 4 10
10 9 8 8 7 5 5 4 3 3 2 3 1 1 4 7 7 12 19 10 10 9 4 2 3 9 2 3 3 5 7 10 6 10 9 2 4 7 3 1 2 2 4 9 14
11 10 9 8 7 5 4 4 2 2 2 2 2 1 2 3 3 7 12 22 19 9 4 1 1 0 3 3 5 5 12 6 5 9 7 6 4 6 5 5 5 4 3 1 4
13 12 11 9 7 5 4 2 2 1 1 1 1 1 5 6 6 1 1 2 16 19 11 3 2 4 3 5 4 7 6 11 5 6 5 4 3 7 4 6 4 5 5 4 7
14 13 12 11 9 7 5 3 2 1 1 1 1 2 5 3 6 5 6 5 4 15 17 6 4 4 5 4 4 5 7 9 9 10 14 14 12 8 10 10 9 8 6 7 8
16 15 14 13 11 9 6 4 3 2 2 2 3 4 3 5 8 15 7 2 2 10 11 11 6 6 4 6 6 5 6 8 9 11 8 11 12 4 7 9 9 8 10 9 10
17 16 16 15 13 10 7 4 3 3 3 2 2 5 3 11 6 6 4 12 11 7 4 17 17 1 1 4 2 4 7 7 6 4 5 7 21 21 10 9 10 9 10 8 10
20 18 17 15 15 12 9 7 6 5 5 3 3 3 6 7 9 22 12 9 7 12 11 9 7 4 4 4 6 4 4 4 3 6 5 8 26 10 8 7 11 11 11 8 11
20 20 17 16 16 15 11 9 6 5 6 5 4 3 7 6 6 16 12 7 4 7 11 14 3 3 3 3 4 3 4 6 4 9 5 12 23 10 10 8 10 10 10 9 8
23 22 19 18 16 15 12 9 4 4 5 6 3 1 5 4 6 4 14 11 4 2 2 3 2 2 1 5 13 12 6 6 5 4 8 16 19 10 10 8 12 13 15 8 9
23 21 20 19 17 16 16 5 2 1 6 6 6 4 2 2 7 4 14 5 2 1 4 2 4 10 15 9 6 7 5 7 3 8 7 11 16 17 14 13 11 11 10 8 9
24 22 22 21 19 18 17 4 4 3 3 13 13 13 12 6 3 3 14 6 6 9 4 4 11 10 7 8 9 11 13 15 8 9 9 11 16 13 16 15 15 18 11 9 6
25 22 23 21 19 19 19 12 7 1 2 4 5 6 7 9 9 6 13 6 6 12 12 12 6 14 12 12 11 14 17 11 12 11 15 12 22 14 15 13 15 17 13 9 16
24 23 24 22 16 15 12 18 9 2 2 4 2 2 4 6 5 18 19 8 7 15 13 12 15 9 16 14 11 15 11 11 9 7 5 4 10 10 6 16 15 20 11 12 15
22 23 28 33 15 14 9 19 16 2 3 4 4 1 3 6 2 2 17 12 12 10 7 8 8 19 20 15 13 9 5 5 3 8 8 16 8 6 9 11 16 20 15 15 18
21 25 34 25 13 13 15 22 12 4 6 6 4 5 5 4 2 2 4 8 1 14 15 8 1 7 12 14 13 3 4 3 2 1 9 22 11 11 10 16 16 18 13 15 17
20 25 38 31 10 26 30 9 3 4 3 6 4 5 3 6 7 7 6 8 5 7 8 6 15 4 3 6 8 11 6 3 4 6 12 10 11 22 8 13 13 16 12 15 17
25 28 41 29 27 38 16 2 4 4 4 3 4 8 7 7 6 9 6 8 13 6 1 6 4 16 9 15 5 13 15 4 7 4 6 6 10 10 14 25 19 9 15 18 18
32 30 27 26 39 34 8 4 7 5 6 10 5 5 6 8 6 10 9 9 9 16 8 5 5 3 6 7 12 6 10 22 5 4 4 5 6 10 9 9 7 10 17 20 19
17 17 17 40 43 17 5 5 5 4 8 5 6 9 6 6 9 8 8 5 9 16 12 5 2 6 5 4 9 14 7 5 5 6 10 7 5 10 13 13 6 15 19 17 16
22 5 25 42 33 7 4 6 4 6 6 6 6 6 7 6 8 7 6 4 13 12 20 5 4 2 5 10 14 9 11 10 6 6 5 4 7 10 15 12 13 13 17 20 19
2 4 33 42 5 3 3 6 5 6 3 3 3 8 7 10 6 5 8 7 10 9 12 10 4 8 20 11 11 15 17 19 7 13 4 2 8 1 8 15 17 16 14 14 16
3 3 29 31 5 5 4 5 5 7 8 7 10 11 12 6 5 10 8 8 8 13 9 8 5 4 7 7 11 10 17 12 12 2 18 3 7 5 8 8 8 15 13 14 15
3 4 3 3 3 7 6 4 6 5 6 8 6 11 7 7 10 4 6 4 12 8 17 13 4 7 6 4 5 10 21 20 12 7 14 15 20 2 7 10 9 10 14 15 16
2 3 3 8 6 9 13 9 6 7 8 8 4 17 9 7 9 9 12 5 4 13 12 9 5 9 17 23 17 15 19 22 15 12 9 7 8 4 9 12 13 13 13 15 15
2 3 2 4 9 8 11 9 9 5 7 5 9 13 14 7 7 2 7 6 4 12 11 6 4 3 13 21 18 14 17 21 18 15 16 22 6 4 4 7 8 13 16 16 16
3 2 4 8 8 7 5 8 10 8 9 12 14 12 11 20 15 15 8 5 8 11 12 5 3 3 6 9 11 8 14 21 15 16 21 9 4 3 4 7 7 11 15 17 17
Wind_Direction
265 269 275 279 282 291 293 290 291 302 317 329 317 237 228 226 218 239 237 234 204 244 282 323 321 350 329 220 235 134 209 220 218 197 239 279 330 320 311 138 188 100 160 257 163
263 257 262 266 270 276 287 289 293 317 312 306 335 117 194 196 209 240 245 239 232 257 276 42 340 358 329 231 215 184 216 217 203 216 244 244 203 273 260 318 290 47 39 105 152
260 249 249 256 261 260 271 295 302 326 321 292 297 126 137 156 248 235 262 246 232 228 238 217 274 242 239 208 218 221 237 223 246 225 235 274 285 248 214 231 210 194 176 116 187
256 246 241 242 247 245 255 268 300 309 308 222 294 194 171 184 227 244 209 229 217 222 228 204 201 167 231 224 233 252 248 241 257 271 284 263 277 289 266 243 229 227 177 195 201
255 241 241 238 239 238 241 239 232 289 283 220 193 166 173 212 245 153 96 77 168 200 196 185 196 176 201 220 280 247 259 251 262 257 266 279 264 254 257 251 260 265 283 259 250
258 241 239 236 238 237 230 233 218 233 257 251 216 196 226 239 240 226 219 233 177 172 198 191 214 205 249 222 227 301 306 279 260 268 264 273 284 232 273 247 243 255 263 264 274
253 247 240 235 230 230 221 224 230 217 234 232 228 206 254 237 234 135 244 249 228 213 185 218 234 339 299 304 313 277 305 294 237 243 259 287 270 258 244 253 245 247 262 258 256
249 240 236 234 224 222 217 212 215 226 230 212 199 194 248 262 259 259 253 289 238 236 241 238 254 247 211 279 344 351 284 255 190 204 226 191 260 256 246 215 244 250 256 263 264
242 235 232 228 226 218 209 209 217 241 230 201 181 184 265 309 233 248 239 228 247 234 252 266 226 222 325 206 291 236 261 268 295 232 229 207 261 239 241 218 240 254 254 250 254
238 234 225 217 217 215 206 202 211 247 207 192 216 263 251 236 211 233 206 220 252 330 282 206 89 157 73 184 225 234 252 256 214 322 227 257 267 257 265 237 241 244 260 241 215
238 234 225 216 211 202 181 156 70 233 230 209 186 222 255 212 181 182 190 149 175 172 203 199 185 212 221 221 242 271 259 255 357 313 325 266 272 262 253 256 247 251 247 242 216
234 230 222 211 205 198 192 186 209 122 237 233 245 238 272 299 325 207 159 164 176 221 154 263 236 219 242 226 238 248 261 265 291 259 282 274 284 279 260 252 241 250 239 213 170
236 224 217 202 193 186 196 208 169 134 261 241 208 223 232 223 235 212 164 181 197 221 212 221 212 227 220 225 223 240 242 254 263 293 284 282 282 265 258 253 247 247 239 192 182
233 219 202 181 162 189 205 201 171 187 280 205 201 247 190 200 262 215 195 180 214 219 225 243 230 259 211 224 214 243 207 238 259 276 259 46 280 251 252 235 231 240 218 192 187
228 217 185 179 157 173 197 188 197 171 339 187 145 154 137 182 119 228 207 201 216 196 176 211 207 216 240 230 218 236 267 235 259 289 300 261 268 243 211 246 243 232 215 203 184
239 215 187 171 155 175 167 160 150 52 251 170 136 177 175 201 201 86 177 226 293 229 222 220 58 210 219 232 216 112 217 279 260 286 247 241 214 256 227 233 241 232 203 194 174
252 214 184 175 173 156 149 134 103 171 188 163 175 179 208 188 200 187 187 200 203 199 210 191 227 261 179 184 211 209 167 242 211 200 239 186 201 241 238 240 245 234 191 177 166
262 212 185 172 165 152 147 109 189 198 162 124 152 167 190 190 235 204 225 218 230 214 224 213 232 199 186 207 179 200 199 197 201 217 254 145 234 245 221 242 250 239 194 163 161
264 211 171 174 163 156 141 200 208 197 141 163 148 194 205 218 216 207 226 228 218 198 200 199 244 211 195 184 180 182 205 216 319 274 275 212 264 288 257 274 235 183 159 165 157
251 199 158 163 166 158 177 217 209 129 123 157 174 186 205 197 193 199 193 219 226 198 194 207 260 212 159 110 237 222 139 169 196 231 239 246 244 235 197 220 174 161 165 158 151
235 138 152 162 157 157 189 215 184 159 149 170 203 189 223 196 199 197 228 253 201 195 186 157 164 230 142 202 212 204 229 225 177 221 231 246 247 208 219 184 171 176 169 159 155
191 176 153 153 146 191 185 174 167 159 176 163 197 212 222 203 200 213 228 221 181 147 181 201 193 236 240 207 195 222 208 207 206 202 256 315 283 309 205 171 173 170 165 154 150
172 73 162 161 160 185 154 180 181 169 186 191 209 215 207 211 227 198 226 220 179 172 174 168 216 269 281 197 198 210 198 221 239 130 238 287 261 354 104 119 158 150 146 146 142
130 127 134 186 146 143 173 190 193 214 220 208 233 214 203 227 225 266 241 241 189 186 149 175 208 225 274 346 120 181 196 198 204 218 227 243 277 237 141 141 135 143 145 149 155
139 169 132 183 170 169 172 177 186 201 206 205 241 223 205 230 231 220 239 265 164 171 172 182 243 227 243 251 245 238 192 186 196 203 195 263 213 208 176 166 167 151 146 150 157
148 149 131 157 144 162 175 190 186 184 195 197 229 220 208 221 209 211 202 214 178 168 171 215 256 250 281 245 223 243 196 197 205 204 222 270 299 136 123 104 130 154 157 163 165
242 20 127 156 165 181 190 182 214 192 211 231 222 229 228 229 237 258 271 219 169 176 200 196 238 267 333 140 170 223 215 186 193 200 198 224 217 165 117 114 152 159 171 171 170
Height
794 794 792 793 792 791 791 789 789 787 785 786 784 785 786 788 790 790 790 787 786 785 785 785 785 785 785 786 785 786 803 802 793 792 780 767 769 758 754 757 753 753 756 752 753
791 791 791 791 791 790 790 789 788 785 784 785 785 784 784 786 788 786 783 784 785 785 785 785 785 786 788 786 785 791 794 787 776 774 773 768 770 767 763 761 758 755 753 753 754
788 788 788 789 789 788 788 787 785 783 783 784 785 784 785 786 788 778 777 778 782 784 784 784 785 787 788 785 785 782 780 776 771 768 768 769 769 763 764 768 758 757 756 754 757
785 786 786 786 786 786 785 785 785 783 784 784 784 784 785 787 791 774 774 775 777 781 784 784 784 787 789 787 780 785 772 772 770 767 769 770 763 769 764 760 752 750 751 752 754
781 782 783 783 783 783 783 783 783 783 782 783 783 784 784 786 781 775 774 776 776 778 781 784 785 785 788 784 782 781 776 770 768 767 766 764 766 766 760 755 751 747 747 748 749
777 777 779 780 780 780 780 780 780 781 782 783 783 784 784 787 773 773 774 775 776 778 780 782 780 780 783 783 784 775 774 771 767 766 765 767 762 762 754 751 751 748 746 745 745
773 773 775 776 777 778 778 778 779 779 781 782 783 783 784 777 771 770 772 774 776 777 778 779 779 782 779 779 775 774 778 771 767 765 766 762 759 755 752 749 748 746 743 742 741
769 769 771 772 773 775 776 777 778 779 780 780 782 783 780 769 768 770 770 772 773 775 776 777 778 780 779 775 777 779 779 778 761 761 761 765 747 747 745 748 748 745 742 741 739
763 765 766 768 771 772 773 775 776 777 778 779 781 782 777 768 766 765 768 771 772 773 774 774 777 779 778 780 785 783 787 779 770 757 759 758 742 744 741 744 743 741 739 738 738
757 759 761 764 767 770 772 774 775 775 777 778 778 783 771 765 763 762 765 770 772 772 774 776 779 783 787 783 776 772 783 777 775 764 759 756 746 745 741 741 738 734 729 735 735
750 753 756 759 763 766 770 774 777 777 772 766 767 765 761 761 762 762 764 768 772 774 780 777 784 779 778 779 776 775 777 779 775 767 769 758 747 741 737 734 737 735 733 732 732
743 747 750 754 759 763 767 767 765 765 767 763 762 764 761 761 764 762 763 771 773 777 779 781 775 774 775 776 777 776 776 773 774 768 764 756 748 740 730 725 725 724 725 728 730
737 740 745 749 755 760 762 764 764 764 766 759 757 759 761 762 761 761 762 765 770 773 774 778 767 767 772 772 775 773 772 776 778 771 759 759 742 736 723 722 719 714 714 720 722
730 734 739 745 754 756 759 762 763 765 769 756 757 755 757 757 759 754 756 761 766 768 771 768 767 766 767 769 771 771 765 770 772 775 778 758 746 729 718 713 713 707 712 714 717
723 729 732 738 740 749 751 757 763 767 786 754 755 755 754 754 752 752 752 756 762 763 768 766 764 764 765 763 764 764 763 767 769 772 771 761 765 723 716 711 702 696 699 705 708
717 722 724 735 737 742 748 756 764 785 783 750 750 756 755 753 750 751 754 756 757 759 757 758 755 754 753 753 758 762 767 768 771 775 766 743 754 713 709 698 692 687 694 699 705
710 715 719 726 731 738 747 757 772 783 737 746 747 751 752 748 749 750 754 755 755 755 759 759 759 754 750 754 757 761 769 777 776 776 748 729 743 706 696 687 681 677 688 693 699
707 707 713 721 727 733 744 756 771 735 735 735 739 743 747 742 744 745 748 751 754 756 751 749 754 755 747 743 749 755 759 769 775 766 739 725 724 691 678 673 670 673 677 687 697
702 701 705 716 723 731 741 747 748 728 725 733 740 743 741 739 745 746 744 742 740 748 751 750 749 735 737 738 742 754 755 738 756 737 738 719 699 684 673 672 667 671 678 685 693
692 694 697 708 720 730 737 730 727 720 726 732 732 736 734 737 744 745 740 729 730 733 738 744 761 737 735 738 738 737 741 757 760 762 735 703 704 679 667 668 673 674 677 686 694
691 684 694 704 718 729 729 726 721 719 721 728 729 728 732 735 737 740 734 723 725 724 735 739 749 737 733 731 724 739 742 735 730 730 726 704 684 653 652 652 671 674 677 681 690
680 691 692 704 714 723 721 716 713 716 721 724 728 727 725 726 733 736 727 716 709 716 732 726 737 731 713 704 716 727 722 725 724 721 718 718 687 647 651 651 660 669 678 684 691
673 683 691 699 709 715 712 711 715 716 717 724 722 722 718 719 723 721 711 699 703 708 714 726 727 721 705 703 712 715 710 720 704 708 707 710 685 652 651 660 664 670 680 687 695
675 686 691 695 697 704 710 711 714 715 715 718 716 713 713 714 713 707 705 695 695 698 708 720 717 711 695 685 683 690 697 698 707 708 709 715 690 659 660 663 671 676 679 687 695
670 679 679 684 693 693 700 704 707 709 715 713 713 706 709 708 705 707 700 696 696 698 708 717 706 703 697 695 697 678 677 685 706 698 708 682 668 659 656 661 666 671 681 689 697
673 674 679 681 686 692 697 697 701 706 708 707 706 696 698 705 694 692 690 691 695 704 710 706 703 705 688 672 680 678 675 678 690 702 708 693 655 649 659 664 670 674 680 687 694
671 671 672 681 683 691 690 693 694 695 698 697 696 697 693 692 694 689 686 680 682 690 695 702 702 689 668 659 667 666 661 685 690 679 688 672 653 653 657 662 671 675 676 682 688